Regional Weather Roundup
Issued by NWS Pendleton, OR

Home | Current Version | Previous Version | Text Only | Print | Product List | Glossary On
Versions: 1 2 3 4 5 6 7 8 9 10 11 12 13 14 15 16 17 18 19 20 21 22 23 24 25 26 27 28 29 30 31 32 33 34 35 36 37 38 39 40 41 42 43 44 45 46 47 48 49 50
392
ASUS46 KPDT 280025
RWRPDT
PENDLETON REGIONAL WEATHER ROUNDUP
NATIONAL WEATHER SERVICE PENDLETON OREGON
500 PM PDT FRI MAY 27 2016

NOTE: FAIR INDICATES FEW OR NO CLOUDS BELOW 12,000 FEET WITH NO
SIGNIFICANT WEATHER AND/OR OBSTRUCTIONS TO VISIBILITY.

# INDICATES UNOFFICIAL STATION AND DATA

WAZ520-280110-
EAST SLOPES OF WASHINGTON CASCADES

CITY            SKY/WX      TMP DP  RH  WIND    PRES   REMARKS
#BULLFROG       N/A         55  N/A N/A N5      N/A
#BUMPING DAM    N/A         55  34  45  CALM    N/A
#CLE ELUM HS    N/A         51  36  56  NW8     30.01F
#CLE ELUM 2NW   N/A         50  35  56  SW7     N/A
#CLIFFDEL 2NW   N/A         55  N/A N/A W5      N/A
#EASTON DOT     N/A         55  88  100 W18     N/A
#ELK HTS DOT    N/A         55  140 100 N1      N/A
#GLENWOOD       N/A         58  41  53  W7      30.03S
#MANASTASH CYN  N/A         52  33  48  CALM    30.01S
#NELSON 3SW     N/A         50  36  58  CALM    30.24S
#NILE           N/A         56  34  43  W6      29.29R
#PEOH POINT     N/A         55  52  90  CALM    N/A
#RONALD 2NW     N/A         54  N/A N/A W2      29.93S
#SOUTH BLEWITT  N/A         55  N/A N/A SW21    N/A
#TEANAWAY 4NE   N/A         55  39  55  SW3     N/A
#TROUT LAKE 1NE N/A         55  41  59  NW14    30.08
#TROUT LAKE 1E  N/A         56  41  57  CALM    30.04
$$

WAZ521-280110-
SIMCOE HIGHLANDS

CITY            SKY/WX      TMP DP  RH  WIND    PRES   REMARKS
#SATUS PASS DOT N/A         55  140 100 SW21    N/A
#CENTERVILLE 1SWN/A         57  40  53  W21     30.02S
#GOLDENDALE     N/A         55  32  41  NW9     N/A
#GOLDENDALE 1NE N/A         60  26  27  SW7     N/A
#GOLDENDALE 4W  N/A         60  45  58  W20     30.08S
#GOODNOE HILLS  N/A         63  39  41  SW35    29.94S
#LYLE 6NE       N/A         58  42  55  W14     30.04
$$

WAZ026-280110-
KITTITAS VALLEY

CITY            SKY/WX      TMP DP  RH  WIND    PRES   REMARKS
ELLENSBURG AP   SUNNY       59  35  40  NW26G38 30.03
6HR MIN TEMP:   57; 6HR MAX TEMP:   62;

#ELLENSBURG CWU N/A         57  35  43  NW22    29.97
#ELLENSBURG 3NE N/A         55  36  49  NW16G26 30.02F
#ELLENSBURG     N/A         59  36  42  NW5     N/A
#ELLENSBURG 13S N/A         62  35  36  E8      N/A
#KITTITAS 4N    N/A         57  35  43  NW16    30.05S
#KITTITAS 3S    N/A         57  37  47  NW17G28 29.99S
#MANASTASH RDG  N/A         55  140 100 SW8     N/A
#ROCKY CYN DOT  N/A         55  N/A N/A N1      N/A
#RYEGRASS DOT   N/A         55  140 100 SW8     N/A
#THORP 6N       N/A         52  38  59  NW21G32 30.04
$$

WAZ027-280110-
YAKIMA VALLEY

CITY            SKY/WX      TMP DP  RH  WIND    PRES   REMARKS
SUNNYSIDE AP    SUNNY       66  35  32  W10     29.99S
YAKIMA AIRPORT  PTCLDY      69  31  24  W13     30.00
6HR MIN TEMP:   62; 6HR MAX TEMP:   71;

YAKIMA-VAGABOND MOCLDY      66  30  26  NW10    29.98
6HR MIN TEMP:   58; 6HR MAX TEMP:   67;

#DONALD 2NE     N/A         71  -3   5  W5      28.84S
#GRANDVIEW      N/A         68  29  23  NW1     29.98F
#MABTON         N/A         68  40  36  W2      29.98
#NACHES 2SW     N/A         61  40  46  W7      30.02S
#OUTLOOK DOT    N/A         55  14  19  N5      N/A
#SELAH 8E       N/A          7  -4  60  CALM    N/A
#TERRACE HTS    N/A         69  35  28  NW5     29.94
#TOPPENISH      N/A         66  32  28  CALM    29.90S
#I82 S UMTANUM RN/A         55  N/A N/A W20G38  N/A
#UNION GAP DOT  N/A         55  N/A N/A N5      N/A
#WEST VALLEY    N/A         65  34  31  W6      29.97
#W YAKIMA       N/A         63  34  34  W6      29.99S
#WHITE SWAN 5E  N/A         68  38  33  W10     29.99S
#WILEY CITY 3W  N/A         65  31  28  CALM    29.98S
#ZILLAH DOT     N/A         55  N/A N/A N5      N/A
$$

WAZ028-280110-
LOWER COLUMBIA BASIN...WASHINGTON

CITY            SKY/WX      TMP DP  RH  WIND    PRES   REMARKS
PASCO           SUNNY       70  34  26  SW13    29.99
6HR MIN TEMP:   62; 6HR MAX TEMP:   71;

PROSSER AWOS    N/A         68  36  31  W5      30.02
RICHLAND AWOS   SUNNY       72  26  18  SW8     29.98S
#BENTON CITY    N/A         67  34  29  W3      29.88S
#CONNELL 5N     N/A         68  31  25  W7      29.96
#CONNELL 5NW    N/A         65  35  33  SW7     29.92S
#ELTOPIA 6NW    N/A         65  34  31  CALM    28.95
#KAHLOTUS       N/A         64  31  29  NW14G30 29.96S
#KENNEWICK 3S   N/A         65  38  37  N5      29.98F
#PATERSON       N/A         68  39  35  NW15G25 29.96
#PROSSER DOT    N/A         55  86  100 N5      N/A
#SAGEMOOR 2W    N/A         64  36  35  SW5     29.82S
#TOUCHET 2S     N/A         68  42  39  W6      29.96
#WEST PASCO     N/A         73  39  29  SW2     30.03S
$$

WAZ029-280110-
FOOTHILLS OF THE BLUES...WASHINGTON

CITY            SKY/WX      TMP DP  RH  WIND    PRES   REMARKS
WALLA WALLA AP  MOSUNNY     65  34  31  W12     30.01
6HR MIN TEMP:   57; 6HR MAX TEMP:   66;

#CLYDE 6NW      N/A         64  32  30  SW10    29.96S
#DAYTON SCHOOL  N/A         61  31  32  E2      30.02S
#DELANEY DOT    N/A         55  86  100 SW10    N/A
#LOWDEN 2SE     N/A         67  38  34  W7      29.96S
#PLEASANT VIEW 1N/A         64  32  30  S6      30.01F
#PRESCOTT       N/A         66  40  38  SW3     29.97F
#SUDBURY        N/A         62  N/A N/A CALM    N/A
#WHITMAN COLLEGEN/A         64  37  37  W10     30.04S
#WAITSBURG 8N   N/A         65  16  15  S6      29.82S
#WALLA WALLA U  N/A         67  37  33  W1      29.98S
#WHITMAN MISSIONN/A         67  39  36  W6      30.00S
$$

WAZ030-280110-
BLUE MOUNTAINS...WASHINGTON

CITY            SKY/WX      TMP DP  RH  WIND    PRES   REMARKS
#DIXIE 5SE      N/A         54  36  50  W7      29.96S
$$

ORZ009-041-WAZ024-280110-
COLUMBIA RIVER GORGE

CITY            SKY/WX      TMP DP  RH  WIND    PRES   REMARKS
THE DALLES AP   CLOUDY      66  38  36  NW22G30 30.08
6HR MIN TEMP:   61; 6HR MAX TEMP:   68;

#ARLINGTON AIRPON/A         64  41  43  W20     30.02S
#CELILO DOT     N/A         67  41  39  W8      N/A
#LYLE           N/A         61  45  56  SW21    30.10S
#MARYHILL       N/A         55  140 100 CALM    N/A
#MARYHILL 2W    N/A         60  41  49  W13     N/A
#MOSIER 1S      N/A         58  31  36  W15     30.06S
#MURDOCK        N/A         62  46  56  W14G24  30.05R
#RUFUS DOT      N/A         65  40  40  W23     N/A
#SMITHVILLE     N/A         64  40  41  W20G30  30.01F

$$

ORZ510-280110-
NORTH CENTRAL OREGON

CITY            SKY/WX      TMP DP  RH  WIND    PRES   REMARKS
#ANTELOPE       N/A         58  36  44  N6      29.93S
#CHENOWITH 1W   N/A         53  38  57  NW29    N/A
#COW CYN RST AREN/A         56  N/A N/A NW8     N/A
#DUFUR 9E       N/A         53  38  57  NW17G26 30.14S
#GRASS VALLEY   N/A         54  36  50  NW3     N/A
#GRASS VALLEY 1SN/A         57  39  51  W12     30.01S
#KENT DOT       N/A         55  28  35  N10     N/A
#MAUPIN SCHOOL  N/A         63  38  39  W10     30.09S
#MORO SCHOOL    N/A         57  41  55  W14     30.08S
#SHANIKO 5WSW   N/A         55  26  32  W18     N/A
#SHANIKO 4NW    N/A         53  -53  1  NW13    30.07
#TYGH VALLEY 2NEN/A         63  38  39  S7      30.04S
#WAPANITIA AIRPON/A         59  37  44  W15     30.07
#WASCO DOT      N/A         61  37  41  W15     N/A
#WASCO AIRPORT  N/A         62  35  36  W20     N/A
#WASCO 5NE      N/A         60  41  49  SW14G25 30.04
$$

ORZ511-280110-
CENTRAL OREGON

CITY            SKY/WX      TMP DP  RH  WIND    PRES   REMARKS
BEND AIRPORT    SUNNY       59  28  30  N16G26  30.05S
MADRAS AIRPORT  SUNNY       64  37  37  N16G26  30.08
PRINEVILLE AP   SUNNY       59  32  36  NW16    30.05S
REDMOND AIRPORT SUNNY       61  28  28  W16G24  30.05
6HR MIN TEMP:   55; 6HR MAX TEMP:   63;

#ASHWOOD SCHOOL N/A         60  33  36  NW7     30.02S
#BEND 1SW       N/A         56  33  42  N2      N/A
#BEND-AWBREY    N/A         60  36  41  NE10    30.03F
#BEND-KIM LN    N/A         59  34  39  N6      30.03S
#CULVER         N/A         59  35  40  N7      30.00S
#CULVER 8W      N/A         61  29  30  W1      30.06S
#LAKE BILLY CHINN/A         62  N/A N/A W7      30.10F
#MADRAS         N/A         55  32  41  NW14    N/A
#MADRAS 4S      N/A         58  16  19  N15     30.12F
#POWELL BUTTE 3EN/A         60  34  37  NW10    N/A
#POWELL BUTTE   N/A         60  37  42  N6      29.93R
#PRINEVILLE 3N  N/A         59  40  49  N12     30.02S

$$


ORZ509-280110-
EAST SLOPES OF OREGON CASCADES

CITY            SKY/WX      TMP DP  RH  WIND    PRES   REMARKS
SISTERS AWOS    N/A         55  34  45  W24G38  30.03F
#BLUE BOX PASS  N/A         43  N/A N/A W1      N/A
#CAMP SHERMAN   N/A         57  31  37  N6      30.14F
#LA PINE DOT    N/A         59  19  21  W9      N/A
#LA PINE 4NW    N/A         55  32  41  W3      30.07
#LAVA BUTTE DOT N/A         55  26  32  CALM    N/A
#SISTERS AIRPOR N/A         56  40  55  N10     30.17S
#SISTERS ODOT   N/A         56  N/A N/A S10     N/A
#SISTERS 1NW    N/A         56  31  38  NW13    N/A
#SISTERS 3N     N/A         56  32  40  NW3     30.06S
#SUNRIVER       N/A         59  31  34  S2      30.04R
#SUTTLE LK DOT  N/A         47  33  58  W20G38  N/A    WCI 40
#TUMALO 3W      N/A         54  33  45  N16     29.92
#WANOGA BUTTE D N/A         47  24  40  NW7     N/A

$$

ORZ044-280110-
LOWER COLUMBIA BASIN...OREGON

CITY            SKY/WX      TMP DP  RH  WIND    PRES   REMARKS
HERMISTON       MOSUNNY     67  33  28  W12     29.99
6HR MIN TEMP:   62; 6HR MAX TEMP:   71;

#BOARDMAN SCHOOLN/A         69  39  33  SW10    29.99
#ECHO 8SW       N/A         66  35  32  W7      30.01S
#I-84 EX 198 DOTN/A         65  34  31  E20     N/A
#IRRIGON 4NW    N/A         55  50  83  SW2     N/A
#UMATILLA SCHOOLN/A         70  46  42  W12     30.02S
#UMATILLA       N/A         70  37  30  SW8     29.91F
$$

ORZ507-280110-
NORTHERN FOOTHILLS OF THE BLUES

CITY            SKY/WX      TMP DP  RH  WIND    PRES   REMARKS
PENDLETON AIRPT MOSUNNY     66  25  21  W15G29  30.00
6HR MIN TEMP:   56; 6HR MAX TEMP:   67;

#ADAMS 3WNW     N/A         63  32  31  W15     29.99S
#ATHENA         N/A         62  34  35  SW7     30.02S
#CAYUSE         N/A         63  32  31  W13     29.99S
#HELIX SCHOOL   N/A         62  32  32  W9      29.99S
#HELIX 3N       N/A         61  38  42  W8      29.98S
#HOLDMAN 5SE    N/A         64  37  37  W7      30.00S
#HOLDMAN 6E     N/A         63  36  36  NE10    29.80S
#M-F GROVE ELEM N/A         65  30  27  W1      29.98F
#M-FREEWATER 5SEN/A         65  39  38  NW7     30.00S
#PENDLETON DNTN N/A         67  33  28  SW3     30.01
#PDT AQUATIC CTRN/A         67  33  28  SW10    30.02S
#PDT SUNRIDGE   N/A         66  30  26  W7      30.02S
#PENDLETON 7NW  N/A         65  39  38  W5      31.97S
#PILOT ROCK 1S  N/A         64  29  27  W2      30.02S
#PILOT ROCK     N/A         66  31  27  N5      30.03F
#TUTUILLA       N/A         65  32  29  CALM    30.00F
#UMAPINE 2E     N/A         67  41  39  NW2     29.97S
#WESTON SCHOOL  N/A         61  27  27  NE2     29.89F

$$

ORZ508-280110-
SOUTHERN FOOTHILLS OF THE BLUES

CITY            SKY/WX      TMP DP  RH  WIND    PRES   REMARKS
LEXINGTON       SUNNY       64  30  28  W23G31  30.07S
#AJAX           N/A         58  30  34  SW15    27.81S
#CONDON SCHOOL  N/A         55  36  49  W8      30.01S
#CONDON 5W      N/A         54  34  47  NW13    30.03S
#FOSSIL SCHOOL  N/A         60  36  41  N5      30.00
#HEPPNER EOC    N/A         60  33  36  W15G31  29.97
#HEPPNER 4NE    N/A         57  34  42  W20G28  30.03S
#LEXINGTON 2SE  N/A         64  32  30  W22     30.01S
#RUGGS 5NE      N/A         59  32  36  W18     30.20S
#RUGGS 2SW      N/A         59  33  37  NW15    30.05S

$$

ORZ502-503-280110-
BLUE MOUNTAINS

CITY            SKY/WX      TMP DP  RH  WIND    PRES   REMARKS
MEACHAM         PTCLDY      54  24  31  VRB6    30.04
6HR MIN TEMP:   46; 6HR MAX TEMP:   55;

#BATTLE MTN DOT N/A         55  35  47  CALM    N/A
#CUTSFORTH PARK N/A         53  32  45  E1      29.82R
#GREENHORN 9SW  N/A         60  30  32  NW3     26.21
#HARDMAN 10S    N/A         61  34  36  N5      30.22S
#HEPPNER 15SE   N/A         50  32  50  W3      29.96S
#LADD CYN SMT   N/A         56  25  30  NW14    N/A
#LADD CREEK ODOTN/A         58  32  37  NE14    N/A
#LONG CREEK HS  N/A         56  34  43  CALM    N/A
#N POWDER DOT   N/A         57  35  43  NE17    N/A
#PIKES PEAK     N/A         51  33  50  SW9     27.99S
#TOLLGATE       N/A         46  29  51  S7      29.90
#TROY SCHOOL    N/A         63  35  35  SW1     29.81S
#UKIAH          N/A         57  34  42  NW6     29.92S
#WESTON 4E      N/A         53  33  46  SW6     29.99F
$$

ORZ505-280110-
JOHN DAY BASIN

CITY            SKY/WX      TMP DP  RH  WIND    PRES   REMARKS
JOHN DAY        N/A         N/A N/A N/A MISG    N/A
#DAYVILLE SCHOOLN/A         64  23  21  N8      29.98
#MITCHELL       N/A         61  36  39  N1      30.19S
#MONUMENT HS    N/A         65  28  25  N9      29.98S
#MT. VERNON 5SE N/A         59  25  27  SW6     29.97R
#SPRAY SCHOOL   N/A         68  N/A N/A CALM    N/A
#WINLOCK        N/A         60  33  36  CALM    30.01R
$$

ORZ506-280110-
OCHOCO AND JOHN DAY HIGHLANDS

CITY            SKY/WX      TMP DP  RH  WIND    PRES   REMARKS
#BUCK CREEK DOT N/A         60  27  28  W6      N/A
#HORSE RIDGE DO N/A         57  28  33  NW16    N/A
#KEYES SMT DOT  N/A         54  30  40  W10     N/A
#PAULINA SCHOOL N/A         62  25  24  NW8     N/A
#PINE MTN OBS   N/A         46  29  51  NW9     N/A
#PRAIRIE CITY   N/A         64  35  34  W3      30.14S
#SENECA         N/A         56  N/A N/A N7      N/A
#SENECA 9NW     N/A         58  28  32  SW1     29.95S
$$

ORZ049-280110-
GRANDE RONDE VALLEY

CITY            SKY/WX      TMP DP  RH  WIND    PRES   REMARKS
LA GRANDE       PTCLDY      61  28  28  N16     30.01S
#COVE           N/A         58  38  47  CALM    30.05S
#COVE SCHOOL    N/A         58  34  40  CALM    30.04S
#COVE 6NW       N/A         58  33  39  N6      29.91R
#ELGIN 3N       N/A         57  28  33  W1      30.00S
#ELGIN 1E       N/A         60  35  39  NW6     N/A
#IMBLER SCHOOL  N/A         57  33  40  SW7     29.98S
#ISLAND CITY 4N N/A         61  46  58  CALM    30.16S
#LADD CYN DOT   N/A         61  35  38  N12     N/A
#UNION 1S       N/A         61  36  39  NE6     29.89S
$$

ORZ050-280110-
WALLOWA COUNTY

CITY            SKY/WX      TMP DP  RH  WIND    PRES   REMARKS
JOSEPH AIRPORT  PTCLDY      55  28  35  N5      N/A
#ENTERPRISE AP  N/A         49  29  46  CALM    29.94S
#ENTERPRISE HS  N/A         55  34  45  W5      30.01S
#IMNAHA SCHOOL  N/A         63  39  41  S2      29.97F
#IMNAHA 10S     N/A         59  40  49  N1      29.98
#JOSEPH 3N      N/A         54  31  41  N7      30.03S
#JOSEPH 3W      N/A         54  35  48  CALM    29.85S
#LOSTINE 3SE    N/A         56  33  42  N12     29.99F
#MT HOWARD 8000 N/A         33  30  89  NW5     30.04S
#PROMISE 1S     N/A         51  34  52  SE8     30.12S
#WALLOWA SCHOOL N/A         58  33  39  W2      29.98S



$$



USA.gov is the U.S. government's official web portal to all federal, state and local government web resources and services.